1499900400.47,24731,19.75,73740.3,5.09,4.33,4.33,0,*72
1499900401.67,24732,19.75,73742.3,5.13,4.45,4.45,0,*7A
1499900402.84,24733,19.75,73738.3,5.11,4.41,4.45,0,*7D
1499900404.01,24734,19.75,73736.5,5.11,4.45,4.45,0,*7E
1499900405.19,24735,19.75,73736.0,5.11,4.41,4.41,0,*7F
1499900406.37,24736,19.75,73738.0,5.11,4.41,4.45,0,*78
1499900407.55,24737,19.75,73738.8,5.11,4.41,4.41,0,*7D
1499900408.72,24738,19.75,73742.3,5.11,4.45,4.41,0,*76
1499900409.9,24739,19.75,73744.5,5.11,4.41,4.41,0,*73
1499900411.08,24740,19.75,73744.5,5.11,4.45,4.45,0,*7D
1499900412.25,24741,19.75,73736.8,5.11,4.41,4.41,0,*7C
1499900413.45,24742,19.75,73742.3,5.13,4.49,4.45,0,*71
1499900414.63,24743,19.75,73746.5,5.11,4.41,4.41,0,*7E
1499900415.81,24744,19.75,73744.8,5.11,4.37,4.37,0,*79
1499900417.0,24745,19.75,73744.3,5.11,4.37,4.37,0,*78
1499900418.19,24746,19.75,73746.5,5.13,4.45,4.45,0,*79
1499900419.42,24747,19.75,73750.5,5.11,4.31,4.31,0,*7A
1499900420.61,24748,19.75,73746.0,5.11,4.37,4.37,0,*75
1499900421.82,24749,19.75,73742.3,5.09,4.41,4.37,0,*7C
1499900422.99,24750,19.75,73746.8,5.11,4.41,4.41,0,*7C
1499900424.17,24751,19.75,73750.3,5.11,4.45,4.45,0,*7D
1499900425.34,24752,19.75,73750.3,5.11,4.41,4.45,0,*7A
1499900426.52,24753,19.75,73748.8,5.11,4.41,4.41,0,*7F
1499900427.75,24754,19.75,73752.5,5.11,4.31,4.31,0,*78
1499900428.98,24755,19.75,73754.0,5.13,4.31,4.33,0,*79
1499900430.21,24756,19.75,73756.0,5.13,4.23,4.31,0,*7B
1499900431.38,24757,19.75,73754.3,5.11,4.15,4.19,0,*77
1499900432.56,24758,19.75,73750.0,5.11,4.15,4.15,0,*74
1499900433.79,24759,19.75,73748.5,5.11,4.31,4.31,0,*75
1499900435.0,24760,19.75,73752.0,5.11,4.37,4.31,0,*79
1499900436.17,24761,19.75,73752.3,5.11,4.27,4.27,0,*7E
1499900437.34,24762,19.75,73754.8,5.11,4.27,4.27,0,*7D
1499900438.53,24763,19.75,73754.8,5.11,4.37,4.37,0,*7C
1499900439.71,24764,19.75,73756.3,5.11,4.37,4.37,0,*7B
1499900440.92,24765,19.75,73752.3,5.09,4.33,4.37,0,*77
1499900442.12,24766,19.75,73754.3,5.09,4.41,4.41,0,*70
1499900443.3,24767,19.75,73756.0,5.11,4.41,4.41,0,*78
1499900444.5,24768,19.75,73756.0,5.13,4.45,4.49,0,*79
1499900445.69,24769,19.75,73752.5,5.13,4.45,4.45,0,*74
1499900446.87,24770,19.75,73754.3,5.11,4.45,4.45,0,*7E
1499900448.04,24771,19.75,73758.0,5.11,4.45,4.45,0,*7F
1499900449.22,24772,19.75,73752.5,5.11,4.41,4.41,0,*7C
1499900450.4,24773,19.75,73758.0,5.11,4.37,4.37,0,*7D
1499900451.61,24774,19.75,73756.8,5.11,4.31,4.37,0,*7C
1499900452.81,24775,19.75,73754.5,5.13,4.41,4.41,0,*79
1499900454.0,24776,19.75,73754.3,5.11,4.37,4.37,0,*78
1499900455.18,24777,19.75,73758.0,5.11,4.37,4.37,0,*79
1499900456.36,24778,19.75,73754.0,5.11,4.41,4.41,0,*76
1499900457.57,24779,19.75,73752.5,5.11,4.37,4.31,0,*71
1499900458.76,24780,19.75,73752.5,5.11,4.37,4.37,0,*71
1499900459.96,24781,19.75,73754.8,5.09,4.33,4.33,0,*79
1499900461.15,24782,19.75,73752.3,5.11,4.37,4.37,0,*73
1499900462.33,24783,19.75,73752.3,5.11,4.37,4.37,0,*72
1499900463.52,24784,19.75,73754.8,5.11,4.37,4.41,0,*74
1499900464.7,24785,19.75,73748.5,5.11,4.37,4.41,0,*75
1499900465.87,24786,19.75,73748.0,5.11,4.41,4.45,0,*73
1499900467.07,24787,19.75,73750.5,5.09,4.41,4.49,0,*77
1499900468.29,24788,19.75,73750.3,5.13,4.57,4.59,0,*75
1499900469.47,24789,19.75,73752.3,5.11,4.57,4.53,0,*7C
1499900470.65,24790,19.75,73750.3,5.11,4.53,4.57,0,*74
1499900471.83,24791,19.75,73750.5,5.11,4.53,4.57,0,*75
1499900473.01,24792,19.75,73748.0,5.11,4.57,4.57,0,*72
1499900474.18,24793,19.75,73748.8,5.11,4.57,4.57,0,*73
1499900475.36,24794,19.75,73748.0,5.11,4.53,4.53,0,*74
1499900476.56,24795,19.75,73746.8,5.11,4.63,4.53,0,*76
1499900477.81,24796,19.75,73744.3,5.13,4.59,4.59,0,*74
1499900479.02,24797,19.75,73746.3,5.11,4.59,4.57,0,*79
1499900480.27,24798,19.75,73744.8,5.13,4.59,4.59,0,*7A
1499900481.52,24799,19.75,73744.5,5.13,4.59,4.59,0,*7B
1499900482.72,24800,19.75,73746.0,5.13,4.57,4.57,0,*74
1499900483.97,24801,19.75,73746.0,5.13,4.59,4.59,0,*75
1499900485.22,24802,19.75,73748.5,5.13,4.59,4.67,0,*7B
1499900486.45,24803,19.75,73748.0,5.13,4.57,4.67,0,*74
1499900487.67,24804,19.75,73746.5,5.13,4.57,4.59,0,*7E
1499900488.92,24805,19.75,73750.3,5.13,4.59,4.59,0,*71
1499900490.17,24806,19.75,73748.3,5.13,4.59,4.59,0,*72
1499900491.41,24807,19.75,73746.8,5.13,4.67,4.59,0,*7E
1499900492.61,24808,19.75,73746.5,5.13,4.57,4.57,0,*7C
1499900493.81,24809,19.75,73744.3,5.13,4.57,4.57,0,*7D
1499900495.04,24810,19.75,73746.5,5.15,4.67,4.59,0,*7E
1499900496.24,24811,19.75,73744.0,5.13,4.49,4.57,0,*7B
1499900497.44,24812,19.75,73744.5,5.13,4.57,4.57,0,*77
1499900498.61,24813,19.75,73744.3,5.15,4.57,4.49,0,*7F
1499900499.83,24814,19.75,73744.0,5.17,4.49,4.59,0,*74
1499900501.03,24815,19.75,73742.5,5.17,4.53,4.49,0,*7F
1499900502.23,24816,19.75,73746.0,5.17,4.53,4.53,0,*77
1499900503.4,24817,19.75,73744.3,5.15,4.49,4.45,0,*78
1499900504.57,24818,19.75,73744.5,5.15,4.49,4.49,0,*7B
1499900505.76,24819,19.75,73744.5,5.13,4.49,4.49,0,*7C
1499900506.97,24820,19.75,73746.8,5.15,4.59,4.57,0,*7E
1499900508.18,24821,19.75,73744.3,5.15,4.59,4.49,0,*70
1499900509.35,24822,19.75,73744.8,5.15,4.57,4.49,0,*7D
1499900510.52,24823,19.75,73746.5,5.15,4.49,4.45,0,*7F
1499900511.7,24824,19.75,73746.0,5.15,4.49,4.57,0,*7B
1499900512.88,24825,19.75,73746.3,5.15,4.57,4.57,0,*75
1499900514.05,24826,19.75,73744.5,5.15,4.49,4.57,0,*79
1499900515.23,24827,19.75,73744.3,5.15,4.49,4.57,0,*78
1499900516.48,24828,19.75,73746.0,5.17,4.59,4.59,0,*7A
1499900517.65,24829,19.75,73744.0,5.15,4.57,4.49,0,*76
1499900518.86,24830,19.75,73746.5,5.17,4.53,4.53,0,*73
1499900520.03,24831,19.75,73744.8,5.15,4.49,4.45,0,*7C
1499900521.2,24832,19.75,73746.0,5.15,4.45,4.49,0,*7F
1499900522.38,24833,19.75,73744.0,5.15,4.49,4.45,0,*7E
1499900523.55,24834,19.75,73748.8,5.15,4.45,4.49,0,*79
1499900524.73,24835,19.75,73748.8,5.15,4.45,4.45,0,*74
1499900525.9,24836,19.75,73748.5,5.15,4.45,4.45,0,*77
1499900527.09,24837,19.75,73746.3,5.13,4.49,4.49,0,*70
1499900528.26,24838,19.75,73744.5,5.15,4.49,4.49,0,*79
1499900529.44,24839,19.75,73744.5,5.15,4.49,4.57,0,*77
1499900530.64,24840,19.75,73744.5,5.15,4.57,4.59,0,*78
1499900531.84,24841,19.75,73744.3,5.17,4.53,4.53,0,*75
1499900533.05,24842,19.75,73744.3,5.17,4.53,4.53,0,*76
1499900534.25,24843,19.75,73744.8,5.15,4.57,4.59,0,*7B
1499900535.45,24844,19.75,73746.3,5.17,4.53,4.53,0,*70
1499900536.65,24845,19.75,73746.8,5.17,4.53,4.53,0,*71
1499900537.82,24846,19.75,73742.0,5.15,4.49,4.49,0,*70
1499900539.0,24847,19.69,73738.3,5.15,4.57,4.57,0,*71
1499900540.25,24848,19.75,73742.3,5.17,4.59,4.59,0,*7C
1499900541.42,24849,19.75,73740.8,5.15,4.49,4.49,0,*7F
1499900542.6,24850,19.75,73742.0,5.15,4.45,4.45,0,*77
1499900543.83,24851,19.75,73740.8,5.17,4.59,4.57,0,*7A
1499900545.06,24852,19.75,73742.3,5.17,4.53,4.59,0,*7D
1499900546.23,24853,19.75,73742.5,5.15,4.57,4.49,0,*7B
1499900547.41,24854,19.69,73736.3,5.15,4.57,4.57,0,*73
1499900548.67,24855,19.75,73740.3,5.17,4.59,4.59,0,*70
1499900549.92,24856,19.75,73740.3,5.17,4.59,4.59,0,*73
1499900551.12,24857,19.75,73742.8,5.15,4.59,4.57,0,*7E
1499900552.38,24858,19.75,73740.5,5.17,4.59,4.59,0,*7D
1499900553.63,24859,19.75,73740.3,5.17,4.59,4.59,0,*7C
1499900554.81,24860,19.75,73742.3,5.15,4.57,4.57,0,*74
1499900556.06,24861,19.75,73742.5,5.17,4.59,4.59,0,*77
1499900557.29,24862,19.69,73740.3,5.15,4.59,4.59,0,*76
1499900558.54,24863,19.69,73740.8,5.17,4.63,4.59,0,*7C
1499900559.74,24864,19.75,73746.0,5.15,4.57,4.59,0,*7E
1499900560.97,24865,19.75,73744.5,5.17,4.53,4.59,0,*79
1499900562.16,24866,19.75,73746.5,5.15,4.49,4.59,0,*73
1499900563.42,24867,19.69,73742.3,5.17,4.63,4.63,0,*71
1499900564.67,24868,19.75,73746.8,5.17,4.59,4.63,0,*77
1499900565.87,24869,19.75,73746.8,5.15,4.57,4.59,0,*73
1499900567.07,24870,19.75,73744.8,5.15,4.57,4.59,0,*7B
1499900568.3,24871,19.75,73748.5,5.15,4.59,4.59,0,*74
1499900569.56,24872,19.75,73750.3,5.17,4.71,4.63,0,*76
1499900570.77,24873,19.75,73750.5,5.15,4.57,4.67,0,*75
1499900572.0,24874,19.75,73748.0,5.15,4.67,4.67,0,*71
1499900573.26,24875,19.75,73754.0,5.17,4.71,4.71,0,*72
1499900574.52,24876,19.75,73750.0,5.17,4.63,4.71,0,*72
1499900575.78,24877,19.75,73752.8,5.17,4.71,4.71,0,*70
1499900577.01,24878,19.75,73754.5,5.15,4.67,4.67,0,*7D
1499900578.27,24879,19.69,73750.0,5.17,4.63,4.71,0,*7D
1499900579.53,24880,19.75,73756.5,5.17,4.63,4.71,0,*7B
1499900580.78,24881,19.75,73752.5,5.17,4.59,4.59,0,*79
1499900582.01,24882,19.75,73756.0,5.19,4.59,4.59,0,*74
1499900583.24,24883,19.75,73756.0,5.19,4.63,4.59,0,*7C
1499900584.46,24884,19.75,73756.0,5.19,4.59,4.59,0,*72
1499900585.69,24885,19.75,73756.3,5.19,4.63,4.59,0,*7A
1499900586.92,24886,19.69,73752.8,5.21,4.63,4.57,0,*7C
1499900588.09,24887,19.75,73756.8,5.15,4.49,4.45,0,*71
1499900589.26,24888,19.75,73756.0,5.19,4.49,4.53,0,*75
1499900590.45,24889,19.75,73756.8,5.19,4.53,4.53,0,*7F
1499900591.65,24890,19.75,73756.0,5.17,4.53,4.53,0,*79
1499900592.9,24891,19.75,73760.5,5.17,4.59,4.59,0,*78
1499900594.1,24892,19.75,73762.0,5.19,4.63,4.49,0,*7D
1499900595.33,24893,19.75,73756.0,5.17,4.53,4.59,0,*70
1499900596.56,24894,19.75,73760.0,5.19,4.59,4.63,0,*7A
1499900597.81,24895,19.75,73760.3,5.17,4.63,4.63,0,*7C
1499900599.07,24896,19.75,73760.3,5.17,4.63,4.71,0,*7C
1499900600.31,24897,19.75,73762.3,5.19,4.71,4.71,0,*70
1499900601.55,24898,19.75,73762.0,5.19,4.71,4.71,0,*7F
1499900602.78,24899,19.75,73762.0,5.19,4.63,4.63,0,*7E
1499900604.01,24900,19.75,73766.3,5.19,4.59,4.59,0,*7F
1499900605.27,24901,19.75,73766.3,5.17,4.63,4.63,0,*70
1499900606.52,24902,19.75,73770.0,5.17,4.63,4.63,0,*73
1499900607.78,24903,19.75,73764.8,5.17,4.59,4.71,0,*78
1499900609.01,24904,19.75,73764.8,5.19,4.63,4.63,0,*7B
1499900610.24,24905,19.75,73766.5,5.19,4.63,4.63,0,*7A
1499900611.48,24906,19.75,73766.8,5.19,4.63,4.71,0,*7A
1499900612.71,24907,19.75,73764.3,5.19,4.59,4.63,0,*71
1499900613.94,24908,19.69,73764.8,5.19,4.59,4.59,0,*77
1499900615.15,24909,19.75,73766.5,5.19,4.59,4.53,0,*7C
1499900616.35,24910,19.75,73766.0,5.19,4.53,4.59,0,*74
1499900617.52,24911,19.75,73770.8,5.19,4.49,4.49,0,*7F
1499900618.69,24912,19.75,73770.5,5.19,4.45,4.49,0,*70
1499900619.9,24913,19.75,73764.0,5.17,4.45,4.33,0,*72
1499900621.08,24914,19.75,73764.8,5.15,4.37,4.37,0,*76
1499900622.29,24915,19.75,73762.3,5.17,4.45,4.37,0,*70
1499900623.49,24916,19.75,73762.5,5.17,4.37,4.27,0,*77
1499900624.69,24917,19.69,73756.5,5.17,4.33,4.33,0,*77
1499900625.93,24918,19.69,73754.3,5.15,4.31,4.31,0,*7A
1499900627.11,24919,19.75,73760.5,5.15,4.41,4.41,0,*7B
1499900628.29,24920,19.75,73762.3,5.15,4.41,4.41,0,*71
1499900629.49,24921,19.75,73758.8,5.17,4.45,4.37,0,*77
1499900630.7,24922,19.75,73764.8,5.17,4.45,4.37,0,*74
1499900631.9,24923,19.75,73768.3,5.17,4.45,4.33,0,*71
1499900633.08,24924,19.69,73760.5,5.15,4.11,4.11,0,*75
1499900634.3,24925,19.75,73758.8,5.15,4.01,4.01,0,*74
1499900635.48,24926,19.69,73756.5,5.15,4.07,4.07,0,*77
1499900636.7,24927,19.75,73754.3,5.15,4.01,4.01,0,*76
1499900637.92,24928,19.75,73762.0,5.11,3.97,3.97,0,*7D
1499900639.12,24929,19.75,73760.3,5.13,4.11,4.11,0,*7E
1499900640.32,24930,19.69,73758.0,5.13,4.11,4.11,0,*76
1499900641.52,24931,19.75,73756.0,5.13,4.07,4.07,0,*77
1499900642.7,24932,19.75,73752.5,5.11,4.11,4.07,0,*71
1499900643.95,24933,19.69,73748.3,5.13,4.01,4.01,0,*75
1499900645.17,24934,19.69,73738.8,5.11,3.97,3.97,0,*70
1499900646.39,24935,19.75,73736.5,5.11,4.05,3.97,0,*7D
1499900647.62,24936,19.69,73736.0,5.11,4.05,4.05,0,*72
1499900648.83,24937,19.75,73740.8,5.11,4.07,4.05,0,*71
1499900650.08,24938,19.75,73746.0,5.13,4.31,4.31,0,*7E
1499900651.28,24939,19.75,73748.0,5.11,4.31,4.27,0,*7A
1499900652.46,24940,19.69,73744.5,5.11,4.27,4.19,0,*7E
1499900653.66,24941,19.75,73744.8,5.11,4.37,4.31,0,*74
1499900654.85,24942,19.69,73744.0,5.11,4.37,4.41,0,*70
1499900656.03,24943,19.75,73748.3,5.11,4.37,4.41,0,*71
1499900657.23,24944,19.69,73748.0,5.13,4.41,4.45,0,*71
1499900658.41,24945,19.75,73748.5,5.11,4.37,4.41,0,*77
1499900659.65,24946,19.75,73752.8,5.11,4.31,4.31,0,*75
1499900660.88,24947,19.69,73750.3,5.11,4.31,4.31,0,*74
1499900662.07,24948,19.69,73752.3,5.13,4.19,4.23,0,*70
1499900663.28,24949,19.69,73748.3,5.11,4.15,4.05,0,*7B
1499900664.45,24950,19.69,73742.0,5.11,4.19,4.27,0,*7F
1499900665.65,24951,19.75,73740.5,5.11,4.07,3.97,0,*7D
1499900666.88,24952,19.75,73744.3,5.09,4.01,3.89,0,*7E
1499900668.12,24953,19.75,73744.3,5.09,4.01,4.01,0,*78
1499900669.35,24954,19.75,73744.8,5.09,4.05,4.11,0,*7A
1499900670.59,24955,19.69,73736.0,5.09,4.01,4.01,0,*7E
1499900671.8,24956,19.69,73734.8,5.09,3.89,3.89,0,*7D
1499900673.06,24957,19.69,73734.5,5.09,3.79,3.71,0,*74
1499900674.28,24958,19.69,73736.0,5.07,3.79,3.79,0,*7D
1499900675.49,24959,19.75,73738.8,5.07,3.81,3.71,0,*73
1499900676.74,24960,19.75,73736.8,5.09,3.79,3.79,0,*78
1499900677.97,24961,19.69,73732.3,5.07,3.79,3.71,0,*7F
1499900679.2,24962,19.75,73738.0,5.07,3.71,3.71,0,*74
1499900680.41,24963,19.75,73732.0,5.03,3.71,3.63,0,*72
1499900681.66,24964,19.75,73734.5,5.01,3.75,3.75,0,*74
1499900682.89,24965,19.75,73738.0,5.03,3.79,3.79,0,*77
1499900684.09,24966,19.69,73738.3,5.01,3.85,3.85,0,*76
1499900685.29,24967,19.75,73736.0,5.01,3.85,3.85,0,*77
1499900686.54,24968,19.69,73740.0,5.01,3.97,3.97,0,*78
1499900687.73,24969,19.69,73738.3,5.01,3.85,3.85,0,*79
1499900688.92,24970,19.75,73742.8,5.03,3.89,3.89,0,*73
1499900690.14,24971,19.75,73744.3,5.03,4.01,4.01,0,*72
1499900691.33,24972,19.69,73740.5,5.03,3.89,3.89,0,*71
1499900692.56,24973,19.75,73742.3,5.03,3.75,3.67,0,*73
1499900693.81,24974,19.69,73740.8,5.01,3.75,3.79,0,*79
1499900695.04,24975,19.69,73740.8,5.03,3.79,3.79,0,*76
1499900696.29,24976,19.69,73744.5,5.01,4.01,4.01,0,*77
1499900697.52,24977,19.75,73746.5,5.01,4.01,4.07,0,*70
1499900698.74,24978,19.75,73746.0,5.01,4.01,4.07,0,*7F
1499900699.94,24979,19.75,73744.5,5.01,4.11,4.11,0,*78
1499900701.14,24980,19.75,73742.5,5.01,4.11,4.11,0,*7E
1499900702.34,24981,19.75,73746.0,5.01,4.11,4.11,0,*7F
1499900703.54,24982,19.75,73750.8,5.01,4.19,4.19,0,*7C
1499900704.73,24983,19.75,73746.8,5.01,4.19,4.19,0,*7D
1499900705.93,24984,19.75,73750.8,5.01,4.23,4.23,0,*7A
1499900707.19,24985,19.75,73748.0,5.01,4.31,4.31,0,*7B
1499900708.45,24986,19.69,73746.0,5.01,4.31,4.31,0,*78
1499900709.71,24987,19.69,73742.5,5.01,4.31,4.31,0,*79
1499900710.88,24988,19.69,73742.0,5.03,4.19,4.23,0,*7D
1499900712.09,24989,19.69,73744.8,5.03,4.31,4.23,0,*76
1499900713.32,24990,19.69,73746.0,5.01,4.33,4.31,0,*7D
1499900714.53,24991,19.75,73750.0,5.01,4.37,4.33,0,*7A
1499900715.71,24992,19.75,73748.8,5.03,4.37,4.33,0,*7B
1499900716.96,24993,19.75,73746.5,5.01,4.01,4.01,0,*7C
1499900718.21,24994,19.69,73740.8,5.01,4.01,3.97,0,*73
1499900719.44,24995,19.75,73742.0,5.01,3.89,3.97,0,*75
1499900720.64,24996,19.69,73736.0,5.03,3.85,3.79,0,*78
1499900721.86,24997,19.75,73738.5,5.01,3.89,3.97,0,*77
1499900723.11,24998,19.75,73732.5,5.01,4.01,3.97,0,*7F
1499900724.34,24999,19.75,73732.5,5.01,3.89,3.97,0,*79
1499900725.59,25000,19.75,73732.3,5.01,3.97,3.97,0,*7E
1499900726.79,25001,19.75,73732.8,5.01,4.07,4.07,0,*7F
1499900727.99,25002,19.75,73734.0,5.01,4.11,4.19,0,*74
1499900729.19,25003,19.69,73728.8,5.01,4.19,4.19,0,*7D
1499900730.38,25004,19.75,73732.3,5.01,4.19,4.19,0,*7A
1499900731.58,25005,19.75,73732.5,5.01,4.19,4.19,0,*7B
1499900732.75,25006,19.69,73732.3,5.03,4.19,4.19,0,*7A
1499900733.95,25007,19.75,73734.0,5.01,4.11,4.19,0,*71
1499900735.15,25008,19.69,73730.0,5.01,4.07,4.11,0,*71
1499900736.35,25009,19.69,73730.8,5.01,4.11,4.19,0,*7F
1499900737.55,25010,19.69,73732.3,5.01,4.11,4.11,0,*7F
1499900738.75,25011,19.75,73734.0,5.01,4.11,4.11,0,*7E
1499900739.96,25012,19.69,73732.8,5.01,4.11,4.07,0,*7A
1499900741.16,25013,19.75,73734.0,5.01,4.07,4.07,0,*7C
1499900742.36,25014,19.75,73740.0,5.01,4.23,4.23,0,*7B
1499900743.54,25015,19.69,73736.0,4.99,4.27,4.19,0,*77
1499900744.8,25016,19.75,73738.0,5.01,4.31,4.31,0,*79
1499900746.06,25017,19.69,73738.0,5.01,4.31,4.31,0,*78
1499900747.31,25018,19.75,73740.0,5.01,4.31,4.31,0,*77
1499900748.51,25019,19.69,73742.0,5.01,4.19,4.19,0,*76
1499900749.77,25020,19.69,73742.8,5.01,4.31,4.31,0,*7C
1499900750.97,25021,19.75,73744.8,5.03,4.23,4.31,0,*7C
1499900752.17,25022,19.69,73740.0,5.01,4.19,4.23,0,*77
1499900753.37,25023,19.69,73742.3,5.01,4.23,4.23,0,*7F
1499900754.57,25024,19.75,73742.8,5.01,4.23,4.23,0,*78
1499900755.83,25025,19.75,73742.8,5.01,4.31,4.31,0,*79
1499900757.06,25026,19.69,73740.3,5.01,4.31,4.33,0,*78
1499900758.26,25027,19.69,73740.5,5.01,4.23,4.23,0,*7B
1499900759.46,25028,19.75,73742.3,5.01,4.19,4.19,0,*74
1499900760.72,25029,19.75,73740.8,5.01,4.31,4.31,0,*75
1499900761.95,25030,19.69,73736.8,5.01,4.31,4.33,0,*7F
1499900763.18,25031,19.75,73736.8,5.01,4.31,4.23,0,*7F
1499900764.41,25032,19.69,73738.5,5.01,4.31,4.23,0,*7C
1499900765.62,25033,19.75,73742.5,5.03,4.31,4.33,0,*7E
1499900766.85,25034,19.75,73740.8,5.01,4.31,4.37,0,*7F
1499900768.06,25035,19.75,73740.0,5.01,4.33,4.33,0,*78
1499900769.28,25036,19.69,73732.8,5.01,4.31,4.19,0,*71
1499900770.52,25037,19.75,73740.8,5.03,4.31,4.31,0,*78
1499900771.72,25038,19.69,73740.5,5.03,4.23,4.31,0,*74
1499900772.96,25039,19.75,73740.5,5.03,4.31,4.31,0,*76
1499900774.19,25040,19.75,73742.8,5.03,4.31,4.31,0,*78
1499900775.37,25041,19.69,73736.3,5.03,4.23,4.19,0,*70
1499900776.54,25042,19.75,73738.8,5.03,4.19,4.11,0,*72
1499900777.72,25043,19.69,73732.0,5.03,4.11,4.19,0,*73
1499900778.89,25044,19.69,73738.5,5.03,4.23,4.23,0,*7C
1499900780.08,25045,19.69,73740.3,5.07,4.33,4.33,0,*79
1499900781.29,25046,19.69,73744.3,5.03,4.31,4.33,0,*7C
1499900782.47,25047,19.75,73744.8,5.03,4.37,4.33,0,*7B
1499900783.66,25048,19.69,73746.5,5.03,4.33,4.33,0,*70
1499900784.85,25049,19.75,73750.0,5.03,4.37,4.37,0,*71
1499900786.02,25050,19.75,73750.5,5.03,4.45,4.45,0,*79
1499900787.22,25051,19.75,73750.0,5.01,4.45,4.49,0,*76
1499900788.4,25052,19.69,73750.3,5.03,4.57,4.57,0,*7B
1499900789.58,25053,19.69,73748.0,5.03,4.49,4.57,0,*75
1499900790.75,25054,19.75,73748.0,5.07,4.53,4.49,0,*72
1499900791.92,25055,19.69,73750.5,5.03,4.49,4.49,0,*7C
1499900793.12,25056,19.69,73746.5,5.09,4.41,4.49,0,*7D
1499900794.29,25057,19.69,73748.5,5.07,4.49,4.53,0,*71
1499900795.49,25058,19.69,73746.5,5.09,4.49,4.49,0,*7B
1499900796.66,25059,19.69,73746.0,5.07,4.53,4.49,0,*7F
1499900797.83,25060,19.69,73744.0,5.03,4.49,4.49,0,*7A
1499900799.01,25061,19.69,73748.3,5.07,4.53,4.49,0,*74
1499900800.18,25062,19.69,73744.8,5.07,4.49,4.53,0,*77
1499900801.35,25063,19.75,73748.3,5.07,4.49,4.49,0,*7D
1499900802.55,25064,19.75,73750.3,5.09,4.49,4.49,0,*74
1499900803.73,25065,19.75,73748.0,5.07,4.49,4.41,0,*73
1499900804.94,25066,19.69,73744.5,5.09,4.37,4.41,0,*77
1499900806.14,25067,19.69,73744.5,5.09,4.41,4.41,0,*77
1499900807.32,25068,19.75,73748.0,5.07,4.41,4.37,0,*77
1499900808.51,25069,19.69,73744.5,5.07,4.37,4.37,0,*77
1499900809.69,25070,19.69,73744.5,5.07,4.33,4.37,0,*7B
1499900810.87,25071,19.69,73740.5,5.07,4.33,4.27,0,*7B
1499900812.07,25072,19.75,73744.0,5.09,4.27,4.33,0,*76
1499900813.26,25073,19.69,73744.0,5.07,4.27,4.33,0,*79
1499900814.44,25074,19.69,73746.8,5.07,4.33,4.33,0,*7B
1499900815.63,25075,19.75,73748.0,5.07,4.27,4.33,0,*7F
1499900816.8,25076,19.69,73744.5,5.07,4.27,4.27,0,*79
1499900817.98,25077,19.69,73744.8,5.07,4.33,4.27,0,*7D
1499900819.16,25078,19.69,73744.0,5.07,4.33,4.33,0,*77
1499900820.34,25079,19.69,73744.8,5.07,4.33,4.37,0,*72
1499900821.52,25080,19.69,73746.3,5.07,4.49,4.41,0,*78
1499900822.7,25081,19.69,73744.5,5.07,4.41,4.41,0,*71
1499900823.88,25082,19.69,73744.5,5.07,4.41,4.41,0,*72
1499900825.06,25083,19.69,73744.8,5.07,4.41,4.41,0,*73
1499900826.26,25084,19.75,73746.8,5.09,4.41,4.53,0,*79
1499900827.46,25085,19.69,73742.3,5.09,4.49,4.49,0,*7B
1499900828.66,25086,19.69,73742.5,5.09,4.53,4.49,0,*73
1499900829.85,25087,19.69,73746.5,5.09,4.41,4.49,0,*71
1499900831.03,25088,19.75,73744.0,5.07,4.41,4.49,0,*70
1499900832.2,25089,19.75,73750.3,5.07,4.53,4.49,0,*72
1499900833.38,25090,19.69,73746.5,5.07,4.49,4.41,0,*79
1499900834.59,25091,19.69,73746.3,5.09,4.41,4.41,0,*7E
1499900835.77,25092,19.69,73744.8,5.07,4.37,4.37,0,*73
1499900836.95,25093,19.69,73746.5,5.07,4.41,4.41,0,*72
1499900838.14,25094,19.69,73744.5,5.07,4.41,4.41,0,*75
1499900839.35,25095,19.75,73748.0,5.09,4.37,4.41,0,*7B
1499900840.52,25096,19.69,73746.3,5.07,4.49,4.53,0,*7C
1499900841.69,25097,19.69,73746.5,5.07,4.49,4.53,0,*7D
1499900842.89,25098,19.75,73750.0,5.09,4.53,4.49,0,*7C
1499900844.09,25099,19.69,73750.0,5.09,4.49,4.49,0,*76
1499900845.28,25100,19.69,73748.3,5.09,4.41,4.49,0,*7F
1499900846.46,25101,19.75,73748.8,5.11,4.45,4.57,0,*7C
1499900847.66,25102,19.69,73748.8,5.09,4.41,4.53,0,*76
1499900848.86,25103,19.69,73748.3,5.09,4.41,4.53,0,*77
1499900850.06,25104,19.69,73750.0,5.09,4.49,4.49,0,*73
1499900851.26,25105,19.69,73746.8,5.09,4.41,4.37,0,*73
1499900852.47,25106,19.69,73750.5,5.09,4.41,4.41,0,*71
1499900853.67,25107,19.69,73744.0,5.09,4.53,4.49,0,*7B
1499900854.85,25108,19.69,73750.5,5.07,4.41,4.37,0,*70
1499900856.05,25109,19.69,73748.0,5.09,4.41,4.37,0,*7F
1499900857.26,25110,19.69,73746.0,5.09,4.37,4.41,0,*77
1499900858.44,25111,19.69,73748.8,5.11,4.53,4.57,0,*7A
1499900859.64,25112,19.69,73746.3,5.09,4.49,4.49,0,*74
1499900860.82,25113,19.75,73744.8,5.07,4.53,4.53,0,*7B
1499900861.99,25114,19.69,73744.0,5.07,4.49,4.41,0,*74
1499900863.2,25115,19.69,73744.0,5.09,4.41,4.41,0,*73
1499900864.41,25116,19.69,73744.0,5.09,4.37,4.41,0,*71
1499900865.61,25117,19.69,73740.8,5.09,4.41,4.41,0,*71
1499900866.79,25118,19.75,73746.0,5.11,4.45,4.53,0,*70
1499900867.99,25119,19.69,73744.5,5.09,4.49,4.53,0,*74
1499900869.16,25120,19.69,73742.3,5.11,4.53,4.49,0,*77
1499900870.34,25121,19.75,73742.5,5.11,4.53,4.53,0,*7D
1499900871.51,25122,19.69,73742.8,5.11,4.57,4.57,0,*7E
1499900872.71,25123,19.69,73742.5,5.09,4.49,4.49,0,*76
1499900873.89,25124,19.69,73742.0,5.11,4.53,4.53,0,*78
1499900875.09,25125,19.69,73742.5,5.09,4.53,4.49,0,*7B
1499900876.26,25126,19.69,73740.0,5.11,4.53,4.53,0,*7A
1499900877.44,25127,19.69,73738.0,5.11,4.53,4.53,0,*7B
1499900878.62,25128,19.69,73738.5,5.11,4.57,4.57,0,*74
1499900879.8,25129,19.69,73742.8,5.11,4.57,4.57,0,*75
1499900881.0,25130,19.69,73740.8,5.09,4.53,4.53,0,*74
1499900882.2,25131,19.69,73740.8,5.09,4.53,4.53,0,*75
1499900883.41,25132,19.69,73740.3,5.09,4.53,4.53,0,*76
1499900884.61,25133,19.69,73740.5,5.09,4.53,4.53,0,*77
1499900885.79,25134,19.69,73740.0,5.11,4.53,4.57,0,*7D
1499900886.99,25135,19.69,73740.3,5.13,4.57,4.57,0,*7A
1499900888.2,25136,19.69,73740.3,5.11,4.57,4.63,0,*7C
1499900889.4,25137,19.69,73740.3,5.11,4.63,4.53,0,*79
1499900890.57,25138,19.69,73740.8,5.11,4.57,4.57,0,*75
1499900891.75,25139,19.69,73738.8,5.11,4.57,4.57,0,*74
1499900892.93,25140,19.69,73740.3,5.11,4.57,4.57,0,*7A
1499900894.11,25141,19.69,73742.5,5.11,4.53,4.53,0,*7B
1499900895.28,25142,19.69,73742.3,5.11,4.53,4.53,0,*78
1499900896.46,25143,19.69,73740.8,5.11,4.45,4.53,0,*7E
1499900897.64,25144,19.69,73740.5,5.11,4.53,4.57,0,*7A
1499900898.82,25145,19.69,73740.0,5.11,4.53,4.57,0,*7B
1499900900.0,25146,19.69,73740.8,5.11,4.57,4.57,0,*7C
1499900901.2,25147,19.69,73738.0,5.11,4.57,4.63,0,*7A
1499900902.38,25148,19.69,73738.3,5.11,4.53,4.57,0,*76
1499900903.56,25149,19.69,73738.8,5.11,4.53,4.57,0,*77
1499900904.73,25150,19.75,73742.5,5.11,4.57,4.53,0,*7F
1499900905.91,25151,19.69,73740.3,5.11,4.53,4.53,0,*7A
1499900907.09,25152,19.69,73740.0,5.11,4.41,4.45,0,*7D
1499900908.26,25153,19.69,73742.5,5.11,4.41,4.45,0,*7C
1499900909.45,25154,19.69,73742.8,5.13,4.57,4.49,0,*72
1499900910.63,25155,19.69,73742.0,5.11,4.57,4.57,0,*7E
1499900911.83,25156,19.69,73742.8,5.11,4.57,4.63,0,*7A
1499900913.06,25157,19.69,73742.3,5.13,4.57,4.67,0,*7D
1499900914.31,25158,19.69,73744.8,5.13,4.59,4.67,0,*7C
1499900915.51,25159,19.69,73744.0,5.11,4.57,4.63,0,*75
1499900916.72,25160,19.69,73744.3,5.11,4.57,4.63,0,*7F
1499900917.94,25161,19.69,73746.3,5.13,4.57,4.59,0,*75
1499900919.11,25162,19.69,73744.5,5.11,4.45,4.53,0,*7D
1499900920.29,25163,19.69,73744.5,5.11,4.41,4.41,0,*7B
1499900921.48,25164,19.69,73746.0,5.13,4.49,4.45,0,*72
1499900922.66,25165,19.69,73746.3,5.11,4.45,4.45,0,*7D
1499900923.83,25166,19.69,73742.8,5.11,4.57,4.53,0,*7A
1499900925.01,25167,19.69,73744.8,5.11,4.57,4.57,0,*7F